Time,TemperatureF,DewpointF,PressureIn,WindDirection,WindDirectionDegrees,WindSpeedMPH,WindSpeedGustMPH,Humidity,HourlyPrecipIn,Conditions,Clouds,dailyrainin,SoftwareType,DateUTC
2013-03-30 00:00:00,29.8,13.0,29.15,North,0,0.0,0.0,49,0.00,,OVC085,0.00,VWS V14.01,2013-03-30 05:00:00,
2013-03-30 00:05:00,30.4,14.0,29.15,North,0,0.0,0.0,50,0.00,,OVC090,0.00,VWS V14.01,2013-03-30 05:05:00,
2013-03-30 00:10:00,30.7,14.8,29.15,North,0,0.0,0.0,51,0.00,,OVC090,0.00,VWS V14.01,2013-03-30 05:10:00,
2013-03-30 00:15:00,31.4,15.4,29.15,North,0,0.0,0.0,51,0.00,,OVC090,0.00,VWS V14.01,2013-03-30 05:15:00,
2013-03-30 00:20:00,32.2,16.1,29.15,North,0,0.0,0.0,51,0.00,,OVC090,0.00,VWS V14.01,2013-03-30 05:20:00,
2013-03-30 00:25:00,33.4,17.7,29.15,North,0,0.0,0.0,52,0.00,,OVC090,0.00,VWS V14.01,2013-03-30 05:25:00,
2013-03-30 00:31:00,34.0,17.3,29.15,North,0,0.0,0.0,50,0.00,,OVC090,0.00,VWS V14.01,2013-03-30 05:31:00,
2013-03-30 00:37:00,34.3,17.6,29.15,North,0,0.0,0.0,50,0.00,,OVC090,0.00,VWS V14.01,2013-03-30 05:37:00,
2013-03-30 00:42:00,34.9,17.7,29.15,North,0,0.0,0.0,49,0.00,,OVC090,0.00,VWS V14.01,2013-03-30 05:42:00,
2013-03-30 00:47:00,35.2,17.0,29.15,North,0,0.0,0.0,47,0.00,,OVC090,0.00,VWS V14.01,2013-03-30 05:47:00,
2013-03-30 00:52:00,35.8,16.5,29.15,North,0,0.0,0.0,45,0.00,,OVC090,0.00,VWS V14.01,2013-03-30 05:52:00,
2013-03-30 00:57:00,35.9,16.2,29.15,North,0,0.0,0.0,44,0.00,,OVC090,0.00,VWS V14.01,2013-03-30 05:57:00,
2013-03-30 01:02:00,35.9,15.6,29.15,North,0,0.0,0.0,43,0.00,,OVC090,0.00,VWS V14.01,2013-03-30 06:02:00,
2013-03-30 01:08:00,36.1,15.3,29.15,North,0,0.0,0.0,42,0.00,,OVC090,0.00,VWS V14.01,2013-03-30 06:08:00,
2013-03-30 01:13:00,36.5,15.6,29.15,North,0,0.0,0.0,42,0.00,,OVC090,0.00,VWS V14.01,2013-03-30 06:13:00,
2013-03-30 01:18:00,36.7,15.8,29.15,North,0,0.0,0.0,42,0.00,,OVC090,0.00,VWS V14.01,2013-03-30 06:18:00,
2013-03-30 01:24:00,37.0,15.5,29.15,North,0,0.0,0.0,41,0.00,,OVC090,0.00,VWS V14.01,2013-03-30 06:24:00,
2013-03-30 01:29:00,37.2,15.1,29.15,North,0,0.0,0.0,40,0.00,,OVC090,0.00,VWS V14.01,2013-03-30 06:29:00,
2013-03-30 01:35:00,37.4,15.3,29.15,North,0,0.0,0.0,40,0.00,,OVC090,0.00,VWS V14.01,2013-03-30 06:35:00,
2013-03-30 01:40:00,37.6,15.4,29.15,North,0,0.0,0.0,40,0.00,,OVC090,0.00,VWS V14.01,2013-03-30 06:40:00,
2013-03-30 01:45:00,37.2,15.1,29.15,North,0,0.0,0.0,40,0.00,,OVC090,0.00,VWS V14.01,2013-03-30 06:45:00,
2013-03-30 01:50:00,37.0,15.0,29.12,North,0,0.0,0.0,40,0.00,,OVC090,0.00,VWS V14.01,2013-03-30 06:50:00,
2013-03-30 01:55:00,37.2,15.1,29.12,North,0,0.0,0.0,40,0.00,,OVC090,0.00,VWS V14.01,2013-03-30 06:55:00,
2013-03-30 02:00:00,37.4,15.3,29.12,North,0,0.0,0.0,40,0.00,,OVC090,0.00,VWS V14.01,2013-03-30 07:00:00,
2013-03-30 02:07:00,37.4,15.3,29.12,North,0,0.0,0.0,40,0.00,,OVC090,0.00,VWS V14.01,2013-03-30 07:07:00,
2013-03-30 02:13:00,37.6,15.4,29.12,North,0,0.0,0.0,40,0.00,,OVC090,0.00,VWS V14.01,2013-03-30 07:13:00,
2013-03-30 02:19:00,37.7,15.6,29.12,North,0,0.0,0.0,40,0.00,,OVC090,0.00,VWS V14.01,2013-03-30 07:19:00,
2013-03-30 02:25:00,37.9,15.8,29.12,North,0,0.0,0.0,40,0.00,,OVC090,0.00,VWS V14.01,2013-03-30 07:25:00,
2013-03-30 02:30:00,37.9,15.8,29.12,North,0,0.0,0.0,40,0.00,,OVC090,0.00,VWS V14.01,2013-03-30 07:30:00,
2013-03-30 02:35:00,37.7,15.6,29.12,North,0,0.0,0.0,40,0.00,,OVC090,0.00,VWS V14.01,2013-03-30 07:35:00,
2013-03-30 02:40:00,37.2,15.1,29.12,North,0,0.0,0.0,40,0.00,,OVC090,0.00,VWS V14.01,2013-03-30 07:40:00,
2013-03-30 02:45:00,36.8,15.4,29.12,North,0,0.0,0.0,41,0.00,,OVC090,0.00,VWS V14.01,2013-03-30 07:45:00,
2013-03-30 02:51:00,36.5,15.0,29.12,North,0,0.0,0.0,41,0.00,,OVC090,0.00,VWS V14.01,2013-03-30 07:51:00,
2013-03-30 02:56:00,36.1,15.3,29.12,North,0,0.0,0.0,42,0.00,,OVC090,0.00,VWS V14.01,2013-03-30 07:56:00,
2013-03-30 03:02:00,36.3,15.4,29.12,North,0,0.0,0.0,42,0.00,,OVC065,0.00,VWS V14.01,2013-03-30 08:02:00,
2013-03-30 03:07:00,36.3,15.4,29.09,North,0,0.0,0.0,42,0.00,,OVC065,0.00,VWS V14.01,2013-03-30 08:07:00,
2013-03-30 03:12:00,36.5,15.6,29.09,North,0,0.0,0.0,42,0.00,,OVC065,0.00,VWS V14.01,2013-03-30 08:12:00,
2013-03-30 03:17:00,36.7,15.8,29.09,North,0,0.0,0.0,42,0.00,,OVC065,0.00,VWS V14.01,2013-03-30 08:17:00,
2013-03-30 03:22:00,37.0,16.1,29.09,North,0,0.0,0.0,42,0.00,,OVC065,0.00,VWS V14.01,2013-03-30 08:22:00,
2013-03-30 03:28:00,37.4,15.9,29.09,North,0,0.0,0.0,41,0.00,,OVC065,0.00,VWS V14.01,2013-03-30 08:28:00,
2013-03-30 03:33:00,37.7,16.2,29.09,North,0,0.0,0.0,41,0.00,,OVC065,0.00,VWS V14.01,2013-03-30 08:33:00,
2013-03-30 03:38:00,37.9,16.3,29.09,North,0,0.0,0.0,41,0.00,,OVC065,0.00,VWS V14.01,2013-03-30 08:38:00,
2013-03-30 03:44:00,38.3,16.7,29.09,North,0,0.0,0.0,41,0.00,,OVC065,0.00,VWS V14.01,2013-03-30 08:44:00,
2013-03-30 03:50:00,38.3,16.1,29.09,North,0,0.0,0.0,40,0.00,,OVC065,0.00,VWS V14.01,2013-03-30 08:50:00,
2013-03-30 03:55:00,38.5,16.3,29.09,North,0,0.0,0.0,40,0.00,,OVC065,0.00,VWS V14.01,2013-03-30 08:55:00,
2013-03-30 04:00:00,38.3,16.1,29.09,North,0,0.0,0.0,40,0.00,,OVC065,0.00,VWS V14.01,2013-03-30 09:00:00,
2013-03-30 04:05:00,38.5,16.8,29.06,North,0,0.0,0.0,41,0.00,,OVC110,0.00,VWS V14.01,2013-03-30 09:05:00,
2013-03-30 04:10:00,38.5,16.8,29.06,North,0,0.0,0.0,41,0.00,,OVC110,0.00,VWS V14.01,2013-03-30 09:10:00,
2013-03-30 04:15:00,38.5,16.8,29.06,North,0,0.0,0.0,41,0.00,,OVC110,0.00,VWS V14.01,2013-03-30 09:15:00,
2013-03-30 04:22:00,38.6,17.0,29.06,North,0,0.0,0.0,41,0.00,,OVC110,0.00,VWS V14.01,2013-03-30 09:22:00,
2013-03-30 04:27:00,38.6,17.0,29.06,North,0,0.0,0.0,41,0.00,,OVC110,0.00,VWS V14.01,2013-03-30 09:27:00,
2013-03-30 04:32:00,38.6,17.0,29.06,North,0,0.0,0.0,41,0.00,,OVC110,0.00,VWS V14.01,2013-03-30 09:32:00,
2013-03-30 04:34:00,38.6,17.0,29.06,North,0,0.0,0.0,41,0.00,,OVC110,0.00,VWS V14.01,2013-03-30 09:34:00,
2013-03-30 04:39:00,38.8,17.1,29.06,North,0,0.0,0.0,41,0.00,,OVC110,0.00,VWS V14.01,2013-03-30 09:39:00,
2013-03-30 04:45:00,39.0,16.7,29.06,North,0,0.0,0.0,40,0.00,,OVC110,0.00,VWS V14.01,2013-03-30 09:45:00,
2013-03-30 04:50:00,39.0,16.7,29.03,North,0,0.0,0.0,40,0.00,,OVC110,0.00,VWS V14.01,2013-03-30 09:50:00,
2013-03-30 04:55:00,39.2,16.9,29.03,North,0,0.0,0.0,40,0.00,,OVC110,0.00,VWS V14.01,2013-03-30 09:55:00,
2013-03-30 05:00:00,39.2,16.9,29.03,North,0,0.0,0.0,40,0.00,,OVC110,0.00,VWS V14.01,2013-03-30 10:00:00,
2013-03-30 05:07:00,39.4,17.1,29.03,North,0,0.0,0.0,40,0.00,,OVC075,0.00,VWS V14.01,2013-03-30 10:07:00,
2013-03-30 05:12:00,39.4,17.1,29.03,North,0,0.0,0.0,40,0.00,,OVC075,0.00,VWS V14.01,2013-03-30 10:12:00,
2013-03-30 05:17:00,39.4,17.1,29.03,North,0,0.0,0.0,40,0.00,,OVC075,0.00,VWS V14.01,2013-03-30 10:17:00,
2013-03-30 05:23:00,39.4,17.1,29.03,North,0,0.0,0.0,40,0.00,,OVC075,0.00,VWS V14.01,2013-03-30 10:23:00,
2013-03-30 05:28:00,39.4,17.1,29.03,North,0,0.0,0.0,40,0.00,,OVC075,0.00,VWS V14.01,2013-03-30 10:28:00,
2013-03-30 05:33:00,39.2,16.9,29.00,North,0,0.0,0.0,40,0.00,,OVC075,0.00,VWS V14.01,2013-03-30 10:33:00,
2013-03-30 05:38:00,39.2,16.9,29.00,North,0,0.0,0.0,40,0.00,,OVC075,0.00,VWS V14.01,2013-03-30 10:38:00,
2013-03-30 05:43:00,39.4,17.1,29.00,North,0,0.0,0.0,40,0.00,,OVC075,0.00,VWS V14.01,2013-03-30 10:43:00,
2013-03-30 05:48:00,39.4,17.1,29.00,North,0,0.0,0.0,40,0.00,,OVC075,0.00,VWS V14.01,2013-03-30 10:48:00,
2013-03-30 05:54:00,39.4,17.1,29.00,North,0,0.0,0.0,40,0.00,,OVC075,0.00,VWS V14.01,2013-03-30 10:54:00,
2013-03-30 05:59:00,39.4,17.1,29.00,North,0,0.0,0.0,40,0.00,,OVC075,0.00,VWS V14.01,2013-03-30 10:59:00,
2013-03-30 06:04:00,39.4,17.1,29.00,North,0,0.0,0.0,40,0.00,,OVC080,0.00,VWS V14.01,2013-03-30 11:04:00,
2013-03-30 06:10:00,39.4,17.1,29.00,North,0,0.0,0.0,40,0.00,,OVC080,0.00,VWS V14.01,2013-03-30 11:10:00,
2013-03-30 06:15:00,39.2,16.9,29.00,North,0,0.0,0.0,40,0.00,,OVC080,0.00,VWS V14.01,2013-03-30 11:15:00,
2013-03-30 06:20:00,39.2,16.9,29.00,North,0,0.0,0.0,40,0.00,,OVC080,0.00,VWS V14.01,2013-03-30 11:20:00,
2013-03-30 06:25:00,39.2,16.9,29.00,North,0,0.0,0.0,40,0.00,,OVC080,0.00,VWS V14.01,2013-03-30 11:25:00,
2013-03-30 06:30:00,39.0,16.7,29.00,North,0,0.0,0.0,40,0.00,,OVC080,0.00,VWS V14.01,2013-03-30 11:30:00,
2013-03-30 06:35:00,38.8,17.1,29.00,North,0,0.0,0.0,41,0.00,,OVC080,0.00,VWS V14.01,2013-03-30 11:35:00,
2013-03-30 06:42:00,38.6,17.5,29.00,North,0,0.0,0.0,42,0.00,,OVC080,0.00,VWS V14.01,2013-03-30 11:42:00,
2013-03-30 06:47:00,38.1,17.6,29.00,North,0,0.0,0.0,43,0.00,,OVC080,0.00,VWS V14.01,2013-03-30 11:47:00,
2013-03-30 06:53:00,37.2,18.3,29.03,North,0,0.0,0.0,46,0.00,,OVC080,0.00,VWS V14.01,2013-03-30 11:53:00,
2013-03-30 06:59:00,36.7,18.8,29.03,North,0,0.0,0.0,48,0.00,,OVC080,0.00,VWS V14.01,2013-03-30 11:59:00,
2013-03-30 07:04:00,35.9,20.0,29.03,North,0,0.0,0.0,52,0.00,,-RA,0.00,VWS V14.01,2013-03-30 12:04:00,
2013-03-30 07:10:00,35.4,20.0,29.03,North,0,0.0,0.0,53,0.00,,-RA,0.00,VWS V14.01,2013-03-30 12:10:00,
2013-03-30 07:15:00,34.9,19.9,29.03,North,0,0.0,0.0,54,0.00,,-RA,0.00,VWS V14.01,2013-03-30 12:15:00,
2013-03-30 07:20:00,34.7,20.6,29.03,North,0,0.0,0.0,56,0.00,,-RA,0.00,VWS V14.01,2013-03-30 12:20:00,
2013-03-30 07:26:00,34.5,20.9,29.03,North,0,0.0,0.0,57,0.00,,-RA,0.00,VWS V14.01,2013-03-30 12:26:00,
2013-03-30 07:33:00,34.3,21.1,29.03,North,0,0.0,0.0,58,0.00,,-RA,0.00,VWS V14.01,2013-03-30 12:33:00,
2013-03-30 07:38:00,34.3,21.5,29.03,North,0,0.0,0.0,59,0.00,,-RA,0.00,VWS V14.01,2013-03-30 12:38:00,
2013-03-30 07:44:00,34.3,21.9,29.03,North,0,0.0,0.0,60,0.00,,-RA,0.00,VWS V14.01,2013-03-30 12:44:00,
2013-03-30 07:49:00,34.5,22.5,28.97,North,0,0.0,0.0,61,0.00,,-RA,0.00,VWS V14.01,2013-03-30 12:49:00,
2013-03-30 07:55:00,34.7,23.4,28.97,North,0,0.0,0.0,63,0.00,,-RA,0.00,VWS V14.01,2013-03-30 12:55:00,
2013-03-30 08:00:00,34.5,24.0,28.97,North,0,0.0,0.0,65,0.00,,-RA,0.00,VWS V14.01,2013-03-30 13:00:00,
2013-03-30 08:05:00,34.3,24.5,28.97,North,0,0.0,0.0,67,0.00,,RA,0.00,VWS V14.01,2013-03-30 13:05:00,
2013-03-30 08:11:00,34.7,25.6,28.97,North,0,0.0,0.0,69,0.00,,RA,0.00,VWS V14.01,2013-03-30 13:11:00,
2013-03-30 08:16:00,34.7,25.9,28.97,North,0,0.0,0.0,70,0.00,,RA,0.00,VWS V14.01,2013-03-30 13:16:00,
2013-03-30 08:21:00,34.9,26.1,28.97,North,0,0.0,0.0,70,0.00,,RA,0.00,VWS V14.01,2013-03-30 13:21:00,
2013-03-30 08:27:00,34.9,26.4,28.97,North,0,0.0,0.0,71,0.00,,RA,0.00,VWS V14.01,2013-03-30 13:27:00,
2013-03-30 08:33:00,34.9,27.1,28.97,North,0,0.0,0.0,73,0.00,,RA,0.00,VWS V14.01,2013-03-30 13:33:00,
2013-03-30 08:38:00,34.9,27.1,28.97,North,0,0.0,0.0,73,0.00,,RA,0.00,VWS V14.01,2013-03-30 13:38:00,
2013-03-30 08:43:00,34.9,27.4,28.97,North,0,0.0,0.0,74,0.00,,RA,0.00,VWS V14.01,2013-03-30 13:43:00,
2013-03-30 08:48:00,34.9,27.8,28.97,North,0,0.0,0.0,75,0.00,,RA,0.00,VWS V14.01,2013-03-30 13:48:00,
2013-03-30 08:53:00,34.9,27.8,28.97,North,0,0.0,0.0,75,0.00,,RA,0.00,VWS V14.01,2013-03-30 13:53:00,
2013-03-30 08:59:00,34.9,28.1,28.97,North,0,0.0,0.0,76,0.00,,RA,0.00,VWS V14.01,2013-03-30 13:59:00,
2013-03-30 09:04:00,35.0,28.2,28.94,North,0,0.0,0.0,76,0.00,,-RA,0.00,VWS V14.01,2013-03-30 14:04:00,
2013-03-30 09:09:00,35.0,28.2,28.94,North,0,0.0,0.0,76,0.00,,-RA,0.00,VWS V14.01,2013-03-30 14:09:00,
2013-03-30 09:14:00,35.0,28.6,28.94,North,0,0.0,0.0,77,0.00,,-RA,0.00,VWS V14.01,2013-03-30 14:14:00,
2013-03-30 09:19:00,35.2,28.8,28.97,North,0,0.0,0.0,77,0.00,,-RA,0.00,VWS V14.01,2013-03-30 14:19:00,
2013-03-30 09:25:00,35.4,28.9,28.97,North,0,0.0,0.0,77,0.00,,-RA,0.00,VWS V14.01,2013-03-30 14:25:00,
2013-03-30 09:30:00,35.6,29.1,28.97,North,0,0.0,0.0,77,0.00,,-RA,0.00,VWS V14.01,2013-03-30 14:30:00,
2013-03-30 09:35:00,35.6,29.4,28.94,North,0,0.0,0.0,78,0.00,,-RA,0.00,VWS V14.01,2013-03-30 14:35:00,
2013-03-30 09:40:00,35.8,29.6,28.94,North,0,0.0,0.0,78,0.00,,-RA,0.00,VWS V14.01,2013-03-30 14:40:00,
2013-03-30 09:46:00,35.8,29.6,28.94,North,0,0.0,0.0,78,0.00,,-RA,0.00,VWS V14.01,2013-03-30 14:46:00,
2013-03-30 09:52:00,35.6,29.4,28.97,North,0,0.0,0.0,78,0.00,,-RA,0.00,VWS V14.01,2013-03-30 14:52:00,
2013-03-30 09:57:00,35.6,29.4,28.97,North,0,0.0,0.0,78,0.00,,-RA,0.00,VWS V14.01,2013-03-30 14:57:00,
2013-03-30 10:02:00,35.6,29.4,28.97,North,0,0.0,0.0,78,0.00,, +RA,0.00,VWS V14.01,2013-03-30 15:02:00,
2013-03-30 10:08:00,35.4,29.2,28.97,North,0,0.0,0.0,78,0.00,, +RA,0.00,VWS V14.01,2013-03-30 15:08:00,
2013-03-30 10:13:00,35.6,29.4,28.97,North,0,0.0,0.0,78,0.00,, +RA,0.00,VWS V14.01,2013-03-30 15:13:00,
2013-03-30 10:18:00,35.6,29.4,28.94,North,0,0.0,0.0,78,0.00,, +RA,0.00,VWS V14.01,2013-03-30 15:18:00,
2013-03-30 10:24:00,35.8,29.6,28.94,North,0,0.0,0.0,78,0.00,,RA,0.00,VWS V14.01,2013-03-30 15:24:00,
2013-03-30 10:29:00,35.8,29.6,28.94,North,0,0.0,0.0,78,0.00,,RA,0.00,VWS V14.01,2013-03-30 15:29:00,
2013-03-30 10:34:00,35.9,29.8,28.94,North,0,0.0,0.0,78,0.00,,RA,0.00,VWS V14.01,2013-03-30 15:34:00,
2013-03-30 10:40:00,35.9,30.1,28.94,North,0,0.0,0.0,79,0.00,,RA,0.00,VWS V14.01,2013-03-30 15:40:00,
2013-03-30 10:45:00,36.1,30.2,28.94,North,0,0.0,0.0,79,0.00,,RA,0.00,VWS V14.01,2013-03-30 15:45:00,
2013-03-30 10:50:00,36.1,30.2,28.94,North,0,0.0,0.0,79,0.00,,RA,0.00,VWS V14.01,2013-03-30 15:50:00,
2013-03-30 10:55:00,36.3,30.4,28.94,North,0,0.0,0.0,79,0.00,,RA,0.00,VWS V14.01,2013-03-30 15:55:00,
2013-03-30 11:00:00,36.3,30.4,28.94,North,0,0.0,0.0,79,0.00,,RA,0.00,VWS V14.01,2013-03-30 16:00:00,
2013-03-30 11:05:00,36.3,30.4,28.94,North,0,0.0,0.0,79,0.00,,-RA,0.00,VWS V14.01,2013-03-30 16:05:00,
2013-03-30 11:10:00,36.5,30.6,28.94,North,0,0.0,0.0,79,0.00,,-RA,0.00,VWS V14.01,2013-03-30 16:10:00,
2013-03-30 11:16:00,36.7,31.1,28.94,North,0,0.0,0.0,80,0.00,,-RA,0.00,VWS V14.01,2013-03-30 16:16:00,
2013-03-30 11:21:00,37.0,31.4,28.94,North,0,0.0,0.0,80,0.00,,-RA,0.00,VWS V14.01,2013-03-30 16:21:00,
2013-03-30 11:27:00,37.2,31.6,28.94,North,0,0.0,0.0,80,0.00,,-RA,0.00,VWS V14.01,2013-03-30 16:27:00,
2013-03-30 11:32:00,37.4,32.1,28.94,North,0,0.0,0.0,81,0.00,,-RA,0.00,VWS V14.01,2013-03-30 16:32:00,
2013-03-30 11:37:00,37.7,32.8,28.91,North,0,0.0,0.0,82,0.00,,-RA,0.00,VWS V14.01,2013-03-30 16:37:00,
2013-03-30 11:43:00,38.1,33.1,28.91,North,0,0.0,0.0,82,0.00,,-RA,0.00,VWS V14.01,2013-03-30 16:43:00,
2013-03-30 11:48:00,38.3,33.3,28.91,North,0,0.0,0.0,82,0.00,,-RA,0.00,VWS V14.01,2013-03-30 16:48:00,
2013-03-30 11:53:00,38.5,33.5,28.91,North,0,0.0,0.0,82,0.00,,-RA,0.00,VWS V14.01,2013-03-30 16:53:00,
2013-03-30 11:58:00,38.5,33.5,28.91,North,0,0.0,0.0,82,0.00,,-RA,0.00,VWS V14.01,2013-03-30 16:58:00,
2013-03-30 12:03:00,38.5,33.5,28.91,North,0,0.0,0.0,82,0.00,,-RA,0.00,VWS V14.01,2013-03-30 17:03:00,
2013-03-30 12:09:00,38.5,33.5,28.91,North,0,0.0,0.0,82,0.00,,-RA,0.00,VWS V14.01,2013-03-30 17:09:00,
2013-03-30 12:14:00,38.5,33.5,28.91,North,0,0.0,0.0,82,0.00,,RA,0.00,VWS V14.01,2013-03-30 17:14:00,
2013-03-30 12:19:00,38.5,33.5,28.91,North,0,0.0,0.0,82,0.00,,RA,0.00,VWS V14.01,2013-03-30 17:19:00,
2013-03-30 12:25:00,38.5,33.8,28.91,North,0,0.0,0.0,83,0.00,,RA,0.00,VWS V14.01,2013-03-30 17:25:00,
2013-03-30 12:30:00,38.3,33.3,28.91,North,0,0.0,0.0,82,0.00,,RA,0.00,VWS V14.01,2013-03-30 17:30:00,
2013-03-30 12:35:00,38.3,33.3,28.91,North,0,0.0,0.0,82,0.00,,RA,0.00,VWS V14.01,2013-03-30 17:35:00,
2013-03-30 12:40:00,38.3,33.6,28.91,North,0,0.0,0.0,83,0.00,,RA,0.00,VWS V14.01,2013-03-30 17:40:00,
2013-03-30 12:45:00,38.5,33.8,28.91,North,0,0.0,0.0,83,0.00,,RA,0.00,VWS V14.01,2013-03-30 17:45:00,
2013-03-30 12:51:00,38.5,33.8,28.91,North,0,0.0,0.0,83,0.00,,RA,0.00,VWS V14.01,2013-03-30 17:51:00,
2013-03-30 12:56:00,38.5,33.8,28.91,North,0,0.0,0.0,83,0.00,,RA,0.00,VWS V14.01,2013-03-30 17:56:00,
2013-03-30 13:01:00,38.3,33.6,28.91,North,0,0.0,0.0,83,0.00,,RA,0.00,VWS V14.01,2013-03-30 18:01:00,
2013-03-30 13:07:00,37.9,33.2,28.91,North,0,0.0,0.0,83,0.00,,RA,0.00,VWS V14.01,2013-03-30 18:07:00,
2013-03-30 13:12:00,37.9,33.2,28.91,North,0,0.0,0.0,83,0.00,,RA,0.00,VWS V14.01,2013-03-30 18:12:00,
2013-03-30 16:37:00,41.2,36.7,28.88,North,0,0.0,0.0,84,0.00,,RA,0.00,VWS V14.01,2013-03-30 21:37:00,
2013-03-30 16:42:00,41.0,36.5,28.88,North,0,0.0,0.0,84,0.00,,,0.00,VWS V14.01,2013-03-30 21:42:00,
2013-03-30 16:47:00,41.0,36.2,28.88,North,0,0.0,0.0,83,0.00,,,0.00,VWS V14.01,2013-03-30 21:47:00,
2013-03-30 16:52:00,40.8,36.0,28.88,North,0,0.0,0.0,83,0.00,,,0.00,VWS V14.01,2013-03-30 21:52:00,
2013-03-30 16:57:00,40.6,36.2,28.88,North,0,0.0,0.0,84,0.00,,,0.00,VWS V14.01,2013-03-30 21:57:00,
2013-03-30 17:02:00,40.4,35.7,28.88,North,0,0.0,0.0,83,0.00,,,0.00,VWS V14.01,2013-03-30 22:02:00,
2013-03-30 17:07:00,40.4,35.7,28.88,North,0,0.0,0.0,83,0.00,,,0.00,VWS V14.01,2013-03-30 22:07:00,
2013-03-30 17:12:00,40.4,35.7,28.88,North,0,0.0,0.0,83,0.00,,,0.00,VWS V14.01,2013-03-30 22:12:00,
2013-03-30 17:17:00,40.6,35.9,28.88,North,0,0.0,0.0,83,0.00,,,0.00,VWS V14.01,2013-03-30 22:17:00,
2013-03-30 17:22:00,40.8,36.0,28.88,North,0,0.0,0.0,83,0.00,,,0.00,VWS V14.01,2013-03-30 22:22:00,
2013-03-30 17:27:00,40.6,35.9,28.88,North,0,0.0,0.0,83,0.00,,,0.00,VWS V14.01,2013-03-30 22:27:00,
2013-03-30 17:32:00,40.4,35.7,28.85,North,0,0.0,0.0,83,0.00,,,0.00,VWS V14.01,2013-03-30 22:32:00,
2013-03-30 17:37:00,40.1,35.0,28.85,North,0,0.0,0.0,82,0.00,,,0.00,VWS V14.01,2013-03-30 22:37:00,
2013-03-30 17:42:00,40.1,35.3,28.85,North,0,0.0,0.0,83,0.00,,,0.00,VWS V14.01,2013-03-30 22:42:00,
2013-03-30 17:47:00,39.9,34.9,28.88,North,0,0.0,0.0,82,0.00,,,0.00,VWS V14.01,2013-03-30 22:47:00,
2013-03-30 17:52:00,39.7,34.7,28.88,North,0,0.0,0.0,82,0.00,,,0.00,VWS V14.01,2013-03-30 22:52:00,
2013-03-30 17:57:00,39.7,34.7,28.88,North,0,0.0,0.0,82,0.00,,,0.00,VWS V14.01,2013-03-30 22:57:00,
2013-03-30 18:02:00,39.5,34.5,28.88,North,0,0.0,0.0,82,0.00,,,0.00,VWS V14.01,2013-03-30 23:02:00,
2013-03-30 18:07:00,39.4,34.3,28.88,North,0,0.0,0.0,82,0.00,,,0.00,VWS V14.01,2013-03-30 23:07:00,
2013-03-30 18:13:00,39.4,34.3,28.88,North,0,0.0,0.0,82,0.00,,,0.00,VWS V14.01,2013-03-30 23:13:00,
2013-03-30 18:18:00,39.5,34.5,28.88,North,0,0.0,0.0,82,0.00,,,0.00,VWS V14.01,2013-03-30 23:18:00,
2013-03-30 18:23:00,39.5,34.5,28.88,North,0,0.0,0.0,82,0.00,,,0.00,VWS V14.01,2013-03-30 23:23:00,
2013-03-30 18:28:00,39.4,34.3,28.88,North,0,0.0,0.0,82,0.00,,,0.00,VWS V14.01,2013-03-30 23:28:00,
2013-03-30 18:33:00,39.2,34.2,28.85,North,0,0.0,0.0,82,0.00,,,0.00,VWS V14.01,2013-03-30 23:33:00,
2013-03-30 18:38:00,39.2,34.2,28.85,North,0,0.0,0.0,82,0.00,,,0.00,VWS V14.01,2013-03-30 23:38:00,
2013-03-30 18:43:00,39.2,34.2,28.85,North,0,0.0,0.0,82,0.00,,,0.00,VWS V14.01,2013-03-30 23:43:00,
2013-03-30 18:48:00,39.0,34.0,28.88,North,0,0.0,0.0,82,0.00,,,0.00,VWS V14.01,2013-03-30 23:48:00,
2013-03-30 18:53:00,38.8,33.8,28.88,North,0,0.0,0.0,82,0.00,,,0.00,VWS V14.01,2013-03-30 23:53:00,
2013-03-30 18:58:00,38.6,33.6,28.88,North,0,0.0,0.0,82,0.00,,,0.00,VWS V14.01,2013-03-30 23:58:00,
2013-03-30 19:03:00,38.5,33.5,28.88,North,0,0.0,0.0,82,0.00,,,0.00,VWS V14.01,2013-03-31 00:03:00,
2013-03-30 19:08:00,38.3,33.3,28.88,North,0,0.0,0.0,82,0.00,,,0.00,VWS V14.01,2013-03-31 00:08:00,
2013-03-30 19:13:00,38.1,33.1,28.88,North,0,0.0,0.0,82,0.00,,,0.00,VWS V14.01,2013-03-31 00:13:00,
2013-03-30 19:18:00,37.9,32.9,28.88,North,0,0.0,0.0,82,0.00,,,0.00,VWS V14.01,2013-03-31 00:18:00,
2013-03-30 19:23:00,37.9,32.9,28.88,North,0,0.0,0.0,82,0.00,,,0.00,VWS V14.01,2013-03-31 00:23:00,
2013-03-30 19:28:00,37.7,32.4,28.88,North,0,0.0,0.0,81,0.00,,,0.00,VWS V14.01,2013-03-31 00:28:00,
2013-03-30 19:33:00,37.0,31.7,28.85,North,0,0.0,0.0,81,0.00,,,0.00,VWS V14.01,2013-03-31 00:33:00,
2013-03-30 19:38:00,36.5,31.2,28.85,North,0,0.0,0.0,81,0.00,,,0.00,VWS V14.01,2013-03-31 00:38:00,
2013-03-30 19:43:00,35.9,30.4,28.85,North,0,0.0,0.0,80,0.00,,SCT014,0.00,VWS V14.01,2013-03-31 00:43:00,
2013-03-30 19:48:00,35.0,29.5,28.88,North,0,0.0,0.0,80,0.00,,SCT014,0.00,VWS V14.01,2013-03-31 00:48:00,
2013-03-30 19:53:00,34.5,29.0,28.88,North,0,0.0,0.0,80,0.00,,SCT014,0.00,VWS V14.01,2013-03-31 00:53:00,
2013-03-30 19:58:00,34.1,28.6,28.88,North,0,0.0,0.0,80,0.00,,SCT014,0.00,VWS V14.01,2013-03-31 00:58:00,
2013-03-30 20:03:00,33.6,28.1,28.88,North,0,0.0,0.0,80,0.00,,CLR,0.00,VWS V14.01,2013-03-31 01:03:00,
2013-03-30 20:08:00,33.1,27.6,28.88,North,0,0.0,0.0,80,0.00,,CLR,0.00,VWS V14.01,2013-03-31 01:08:00,
2013-03-30 20:13:00,32.7,27.2,28.88,North,0,0.0,0.0,80,0.00,,,0.00,VWS V14.01,2013-03-31 01:13:00,
2013-03-30 20:18:00,32.3,26.9,28.88,North,0,0.0,0.0,80,0.00,,,0.00,VWS V14.01,2013-03-31 01:18:00,
2013-03-30 20:23:00,32.0,26.5,28.88,North,0,0.0,0.0,80,0.00,,,0.00,VWS V14.01,2013-03-31 01:23:00,
2013-03-30 20:28:00,31.6,26.2,28.88,North,0,0.0,0.0,80,0.00,,,0.00,VWS V14.01,2013-03-31 01:28:00,
2013-03-30 20:33:00,31.3,25.8,28.88,North,0,0.0,0.0,80,0.00,,,0.00,VWS V14.01,2013-03-31 01:33:00,
2013-03-30 20:38:00,31.1,25.6,28.88,North,0,0.0,0.0,80,0.00,,,0.00,VWS V14.01,2013-03-31 01:38:00,
2013-03-30 20:43:00,30.7,25.3,28.88,North,0,0.0,0.0,80,0.00,,,0.00,VWS V14.01,2013-03-31 01:43:00,
2013-03-30 20:48:00,30.5,25.1,28.88,North,0,0.0,0.0,80,0.00,,,0.00,VWS V14.01,2013-03-31 01:48:00,
2013-03-30 20:53:00,30.2,24.8,28.88,North,0,0.0,0.0,80,0.00,,,0.00,VWS V14.01,2013-03-31 01:53:00,
2013-03-30 20:58:00,30.0,24.6,28.88,North,0,0.0,0.0,80,0.00,,,0.00,VWS V14.01,2013-03-31 01:58:00,
2013-03-30 21:03:00,29.6,24.2,28.88,North,0,0.0,0.0,80,0.00,,,0.00,VWS V14.01,2013-03-31 02:03:00,
2013-03-30 21:08:00,29.3,23.9,28.88,North,0,0.0,0.0,80,0.00,,,0.00,VWS V14.01,2013-03-31 02:08:00,
2013-03-30 21:13:00,29.1,23.7,28.88,North,0,0.0,0.0,80,0.00,,,0.00,VWS V14.01,2013-03-31 02:13:00,
2013-03-30 21:18:00,28.9,23.5,28.88,North,0,0.0,0.0,80,0.00,,,0.00,VWS V14.01,2013-03-31 02:18:00,
2013-03-30 21:23:00,28.7,23.4,28.88,North,0,0.0,0.0,80,0.00,,,0.00,VWS V14.01,2013-03-31 02:23:00,
2013-03-30 21:28:00,28.6,23.2,28.88,North,0,0.0,0.0,80,0.00,,,0.00,VWS V14.01,2013-03-31 02:28:00,
2013-03-30 21:33:00,28.6,23.2,28.88,North,0,0.0,0.0,80,0.00,,,0.00,VWS V14.01,2013-03-31 02:33:00,
2013-03-30 21:38:00,28.6,23.2,28.88,North,0,0.0,0.0,80,0.00,,,0.00,VWS V14.01,2013-03-31 02:38:00,
2013-03-30 21:43:00,28.6,23.2,28.88,North,0,0.0,0.0,80,0.00,,,0.00,VWS V14.01,2013-03-31 02:43:00,
2013-03-30 21:48:00,28.6,23.2,28.88,North,0,0.0,0.0,80,0.00,,,0.00,VWS V14.01,2013-03-31 02:48:00,
2013-03-30 21:53:00,28.6,23.2,28.88,North,0,0.0,0.0,80,0.00,,,0.00,VWS V14.01,2013-03-31 02:53:00,
2013-03-30 21:58:00,28.6,23.2,28.88,North,0,0.0,0.0,80,0.00,,,0.00,VWS V14.01,2013-03-31 02:58:00,
2013-03-30 22:03:00,28.6,23.2,28.88,North,0,0.0,0.0,80,0.00,,,0.00,VWS V14.01,2013-03-31 03:03:00,
2013-03-30 22:08:00,28.6,23.2,28.88,North,0,0.0,0.0,80,0.00,,,0.00,VWS V14.01,2013-03-31 03:08:00,
2013-03-30 22:13:00,28.6,23.2,28.88,North,0,0.0,0.0,80,0.00,,,0.00,VWS V14.01,2013-03-31 03:13:00,
2013-03-30 22:18:00,28.4,23.0,28.88,North,0,0.0,0.0,80,0.00,,,0.00,VWS V14.01,2013-03-31 03:18:00,
2013-03-30 22:23:00,28.2,22.8,28.88,North,0,0.0,0.0,80,0.00,,,0.00,VWS V14.01,2013-03-31 03:23:00,
2013-03-30 22:28:00,28.2,22.8,28.88,North,0,0.0,0.0,80,0.00,,,0.00,VWS V14.01,2013-03-31 03:28:00,
2013-03-30 22:33:00,28.0,22.7,28.88,North,0,0.0,0.0,80,0.00,,,0.00,VWS V14.01,2013-03-31 03:33:00,
2013-03-30 22:38:00,28.0,23.0,28.88,North,0,0.0,0.0,81,0.00,,,0.00,VWS V14.01,2013-03-31 03:38:00,
2013-03-30 22:43:00,28.0,23.0,28.88,North,0,0.0,0.0,81,0.00,,,0.00,VWS V14.01,2013-03-31 03:43:00,
2013-03-30 22:48:00,28.0,23.0,28.88,North,0,0.0,0.0,81,0.00,,,0.00,VWS V14.01,2013-03-31 03:48:00,
2013-03-30 22:53:00,27.8,22.8,28.88,North,0,0.0,0.0,81,0.00,,,0.00,VWS V14.01,2013-03-31 03:53:00,
2013-03-30 22:59:00,27.8,22.8,28.88,North,0,0.0,0.0,81,0.00,,,0.00,VWS V14.01,2013-03-31 03:59:00,
2013-03-30 23:00:00,27.7,22.6,28.88,North,0,0.0,0.0,81,0.00,,,0.00,VWS V14.01,2013-03-31 04:00:00,
2013-03-30 23:05:00,27.7,22.6,28.88,North,0,0.0,0.0,81,0.00,,,0.00,VWS V14.01,2013-03-31 04:05:00,
2013-03-30 23:10:00,27.5,22.4,28.88,North,0,0.0,0.0,81,0.00,,,0.00,VWS V14.01,2013-03-31 04:10:00,
2013-03-30 23:15:00,27.5,22.4,28.88,North,0,0.0,0.0,81,0.00,,,0.00,VWS V14.01,2013-03-31 04:15:00,
2013-03-30 23:20:00,27.3,22.2,28.88,North,0,0.0,0.0,81,0.00,,,0.00,VWS V14.01,2013-03-31 04:20:00,
2013-03-30 23:25:00,27.3,22.2,28.88,North,0,0.0,0.0,81,0.00,,,0.00,VWS V14.01,2013-03-31 04:25:00,
2013-03-30 23:30:00,27.3,22.2,28.88,North,0,0.0,0.0,81,0.00,,,0.00,VWS V14.01,2013-03-31 04:30:00,
2013-03-30 23:35:00,27.1,22.1,28.85,North,0,0.0,0.0,81,0.00,,,0.00,VWS V14.01,2013-03-31 04:35:00,
2013-03-30 23:41:00,26.9,21.9,28.85,North,0,0.0,0.0,81,0.00,,,0.00,VWS V14.01,2013-03-31 04:41:00,
2013-03-30 23:45:00,26.8,21.7,28.85,North,0,0.0,0.0,81,0.00,,,0.00,VWS V14.01,2013-03-31 04:45:00,
2013-03-30 23:51:00,26.8,21.7,28.85,North,0,0.0,0.0,81,0.00,,,0.00,VWS V14.01,2013-03-31 04:51:00,
2013-03-30 23:56:00,26.8,21.7,28.85,North,0,0.0,0.0,81,0.00,,,0.00,VWS V14.01,2013-03-31 04:56:00,